Location: Arapaho Elementary School
(32.9607°N, 96.7625°W)
Time: 00:57:16
(UTC+00:00)

CZ-4B R/B - Visible Passes

Search period start: 28 June 2022 00:00
Search period end: 08 July 2022 00:00
Orbit: 362 x 416 km, 97.6° (Epoch: 27 June)

Date Brightness Start Highest point End Pass type
(mag) Time Alt. Az. Time Alt. Az. Time Alt. Az.
28 Jun 1.1 02:44:23 10° NNE 02:47:11 50° E 02:49:07 18° S visible
29 Jun 2.9 03:22:30 10° NNW 03:25:04 29° WNW 03:27:24 11° SW visible
30 Jun 2.1 02:29:05 10° NE 02:31:32 25° E 02:33:15 15° SSE visible
01 Jul 1.5 03:06:33 10° N 03:09:24 60° WNW 03:11:27 17° SSW visible
02 Jul 2.9 02:14:04 10° ENE 02:15:41 14° E 02:17:14 10° SE visible
02 Jul 4.1 03:45:25 10° NW 03:47:02 14° WNW 03:48:38 10° WSW visible
03 Jul 0.9 02:50:40 10° NNE 02:53:31 62° E 02:55:21 20° S visible
04 Jul 3.2 03:28:43 10° NNW 03:31:09 25° WNW 03:33:25 11° SW visible
05 Jul 1.9 02:34:52 10° NE 02:37:27 30° E 02:39:04 17° SSE visible
06 Jul 1.8 03:12:16 10° N 03:15:05 50° WNW 03:17:02 17° SSW visible
07 Jul 2.8 02:19:17 10° NE 02:21:12 16° E 02:22:37 12° SE visible
07 Jul 4.2 03:51:09 10° NW 03:52:29 12° WNW 03:53:49 10° W visible
